User: anonymous   Login
Location: Unspecified
(0.0000°N, 0.0000°E)
Time: 09:14:28
(UTC+00:00)
Language:

UWE-3 - Orbit

View from above orbital plane
View from above orbital plane
View from above satellite
View from above satellite

Ground track
Ground track

The orbit data is extracted from the following two-line orbital elements,

1 39446U 13066AG  17086.90486462 +.00000401 +00000-0 +60377-4 0  9995
2 39446 097.6379 127.6986 0070422 188.9663 171.0297 14.77922999178602
Epoch (UTC): 27 March 2017 21:43:00
Eccentricity: 0.0070422
inclination: 97.6379°
perigee height: 586 km
apogee height: 685 km
right ascension of ascending node: 127.6986°
argument of perigee: 188.9663°
revolutions per day: 14.77922999
mean anomaly at epoch: 171.0297°
orbit number at epoch: 17860

The dashed part of the orbit path shows where the satellite is in the earth's shadow,  

DLR